Theta_e
304 303 303 303 302 302 302 302 302 302 304 305 305 308 309 307 307 310 311 311 312 314 312 312 313 315 315 315 318 317 318 318 323 326 329 327 328 326 327 325 326 324 325 324 327 326 323 328 326 330 328 327 328 330
302 302 303 302 302 301 301 302 302 303 303 304 305 306 308 308 306 308 311 311 311 312 313 309 311 311 312 313 314 314 317 318 319 324 324 324 326 325 327 327 325 329 325 329 328 325 328 328 327 322 324 326 328 330
302 302 301 301 301 301 301 301 302 302 303 304 304 305 307 308 306 307 308 310 310 311 312 311 313 311 312 311 312 316 315 314 319 318 322 324 326 323 325 325 326 325 325 330 329 326 325 322 320 319 323 322 324 326
301 300 301 301 301 300 301 301 302 302 303 304 304 305 306 308 307 307 307 308 310 311 314 314 310 312 311 311 311 312 312 312 313 317 320 323 324 320 321 320 321 320 322 323 324 322 320 319 319 320 320 320 321 322
300 300 300 300 300 300 301 301 302 303 303 304 304 305 306 308 307 307 309 309 311 313 316 316 312 310 309 310 311 311 312 313 315 318 322 323 321 321 321 321 322 320 321 323 323 320 321 321 320 319 319 321 322 321
300 300 300 300 300 300 301 301 302 303 303 304 305 306 307 307 307 309 314 312 311 312 313 315 312 312 311 311 311 312 312 313 315 317 319 319 320 322 324 322 319 319 319 319 320 319 319 319 319 319 320 320 321 321
300 300 300 300 301 301 302 302 303 303 304 305 306 306 307 307 307 309 313 312 313 312 314 315 314 311 310 312 315 316 311 314 316 318 320 319 319 321 324 324 320 319 319 319 320 321 323 322 323 321 321 321 321 321
300 300 300 301 301 302 302 302 303 304 305 306 306 307 307 307 307 309 313 309 313 313 312 315 315 314 312 318 319 314 320 318 319 321 319 321 320 321 323 321 319 318 318 318 318 318 319 319 319 320 319 321 322 323
300 300 300 300 301 302 302 303 304 305 306 307 308 308 308 308 309 313 313 311 313 313 318 316 315 318 312 316 315 316 315 320 316 321 322 321 321 323 321 319 318 317 318 319 319 319 320 321 321 321 320 320 321 323
300 301 301 301 302 302 303 304 304 306 307 310 309 309 316 314 313 312 313 314 314 315 314 313 313 316 313 316 319 319 318 320 320 319 318 322 320 318 318 318 317 318 319 319 321 321 321 321 321 322 322 322 322 322
301 301 301 301 302 302 303 304 305 307 309 308 312 314 313 313 313 314 318 316 315 315 314 313 313 316 312 318 320 318 320 318 319 320 321 322 323 321 318 318 317 317 319 319 320 320 320 320 320 321 321 321 322 322
301 301 301 301 302 303 303 304 305 306 307 307 307 308 310 311 314 318 320 317 317 316 316 316 316 312 315 313 320 319 320 318 319 319 320 320 321 318 317 317 316 317 319 319 319 320 319 319 319 319 320 321 321 322
301 301 302 302 303 305 307 307 306 307 307 308 308 312 314 316 316 320 317 320 320 318 318 317 320 317 313 314 319 319 319 319 318 319 320 321 320 316 317 317 316 316 318 318 319 319 319 318 318 319 320 319 319 322
301 301 303 303 306 308 307 308 308 307 307 311 314 311 317 317 318 318 318 318 318 317 317 317 320 317 315 317 316 320 319 319 319 319 319 320 318 317 318 316 317 317 317 317 318 318 319 319 319 317 320 320 320 322
301 303 304 306 308 309 310 308 308 307 308 312 314 315 317 316 315 317 317 317 317 316 317 315 314 317 316 319 315 316 319 320 317 318 319 318 317 317 317 316 316 316 316 316 318 319 319 317 316 318 321 320 320 322
302 304 306 307 308 309 310 309 307 307 308 308 311 314 316 317 320 319 318 319 317 316 312 313 316 319 319 318 318 319 318 317 319 319 317 315 317 317 316 314 314 315 315 317 318 317 317 316 317 320 321 323 323 323
303 304 305 306 307 309 309 308 307 308 310 311 313 313 315 315 316 317 317 318 314 316 320 318 320 318 314 318 318 317 319 318 316 316 315 315 316 316 314 313 314 314 315 316 317 317 317 317 317 318 321 321 321 321
303 303 303 303 305 307 308 307 309 312 314 313 315 316 316 317 318 318 318 316 318 319 317 319 317 318 318 317 317 319 317 315 315 314 315 315 315 314 313 313 314 313 315 316 315 315 315 316 316 316 318 319 321 322
303 303 303 304 304 306 308 310 309 313 314 315 316 316 316 318 318 319 317 315 315 315 317 316 318 319 320 317 317 316 313 314 316 315 314 312 311 313 313 313 313 314 314 315 315 313 314 314 314 314 315 316 319 318
304 304 305 304 304 307 309 310 311 315 318 318 315 317 317 320 317 317 317 315 316 318 319 319 320 318 315 314 313 314 314 313 314 315 315 314 312 313 314 312 313 312 314 315 315 313 314 314 314 314 314 315 317 316
304 307 308 305 305 306 308 309 312 315 318 319 317 317 319 316 320 320 319 315 317 319 320 318 316 314 310 312 311 311 312 312 314 313 315 315 313 312 312 312 313 313 314 314 314 314 314 314 314 312 314 314 315 316
304 307 307 306 308 308 308 308 311 312 315 318 317 317 321 322 321 320 315 318 319 320 318 316 316 315 315 313 312 311 312 311 311 311 307 309 312 312 313 312 313 313 313 313 314 312 312 312 314 314 314 314 315 315
304 306 307 309 312 312 313 312 317 319 321 320 319 322 323 322 318 314 319 319 320 318 316 314 314 312 313 312 311 311 311 312 313 313 313 312 311 312 312 313 312 313 314 313 313 313 313 311 313 314 314 314 314 313
305 307 313 314 313 312 314 318 317 319 319 321 322 323 322 321 318 319 321 319 319 315 314 314 312 314 313 313 313 313 313 312 312 313 312 312 312 313 313 313 312 312 312 312 313 313 313 313 313 314 314 314 313 313
309 310 310 306 312 318 318 319 321 322 323 322 321 321 323 320 323 321 318 318 317 317 314 312 312 313 313 313 313 312 310 311 314 314 313 312 313 314 313 312 312 312 312 313 313 313 313 312 313 313 314 314 314 312
312 313 311 315 315 317 318 321 323 323 323 322 321 321 320 322 321 320 319 318 316 317 313 313 314 314 314 312 314 314 313 311 311 313 313 312 313 313 315 316 313 312 311 312 313 312 313 313 313 313 313 313 313 313
312 312 312 311 314 316 318 319 320 322 323 324 323 321 322 322 322 321 316 314 316 315 313 312 312 313 314 314 313 312 311 311 311 313 311 312 311 310 313 314 314 312 311 313 312 310 310 311 313 313 313 313 312 312
314 313 314 314 315 315 316 319 321 324 323 320 318 320 320 320 319 318 318 315 314 314 314 313 312 312 313 313 313 312 312 310 310 311 312 311 309 310 311 312 312 311 311 311 309 307 307 310 312 312 312 312 311 310
315 315 314 316 315 316 318 320 321 322 322 322 323 323 322 319 318 318 315 314 313 314 315 315 314 312 312 312 312 311 311 311 313 315 314 313 312 311 311 311 311 310 311 311 308 305 306 307 309 311 311 309 308 308
314 314 316 317 318 319 318 319 321 321 320 322 321 321 319 318 317 313 312 313 313 314 314 314 313 312 313 313 313 312 311 311 311 313 314 313 312 309 310 312 310 309 309 310 309 306 305 308 309 309 309 309 309 309
313 313 314 314 316 316 316 317 317 318 319 320 319 320 322 321 318 313 312 313 314 313 312 311 311 311 312 313 312 313 314 312 311 311 311 311 311 311 310 311 310 309 309 309 309 308 308 307 308 309 309 309 309 309
314 315 316 317 318 316 318 321 321 321 319 320 322 320 320 320 319 317 313 312 311 312 311 311 312 312 312 311 311 311 310 311 312 311 310 310 311 311 310 309 309 308 309 309 309 309 309 309 308 308 308 309 310 310
315 315 315 315 315 315 319 322 323 323 323 322 323 322 320 321 322 319 314 312 313 312 312 312 312 311 311 310 310 310 310 311 312 312 311 311 310 310 310 308 309 308 309 310 309 309 308 308 309 309 309 309 309 309
Wind_Speed
12 13 13 13 15 15 17 17 17 17 16 15 15 15 15 15 15 12 4 10 5 2 3 4 3 3 3 1 1 3 2 2 1 1 2 1 3 1 3 2 3 10 7 7 4 7 12 6 4 4 8 9 10 10
12 13 14 13 14 15 15 16 16 16 16 15 14 13 12 13 13 11 3 6 7 3 2 3 6 8 4 2 1 0 2 1 1 1 1 1 2 2 1 4 2 5 5 4 6 3 2 4 4 11 9 10 11 10
11 12 13 13 15 15 15 15 15 15 15 15 14 12 11 11 11 10 5 7 4 2 3 3 0 0 5 14 9 2 2 1 2 2 1 1 4 2 4 4 4 2 2 3 4 2 6 11 13 16 8 11 12 12
11 12 13 13 15 15 14 15 13 15 15 14 13 12 12 9 9 8 6 3 1 0 2 1 1 6 7 8 13 15 0 2 2 1 2 2 3 3 5 6 8 8 4 7 12 12 18 19 11 14 20 19 18 14
12 13 12 14 14 13 14 14 13 15 14 13 12 11 10 9 9 9 6 1 2 2 2 5 11 1 4 5 6 9 12 5 3 2 3 4 3 3 6 5 10 11 15 12 14 16 15 16 18 19 19 17 17 18
12 12 13 14 13 14 15 14 14 15 14 11 10 10 9 9 8 3 1 2 4 1 2 3 3 3 4 3 5 7 7 4 3 3 3 3 3 3 4 5 3 6 9 13 15 13 16 19 20 20 20 21 18 17
12 13 13 13 13 14 15 14 14 15 12 9 9 10 10 9 6 1 1 2 3 2 0 3 4 1 4 3 1 2 5 2 3 3 4 6 8 3 4 13 17 15 13 12 13 13 13 16 10 15 16 18 22 20
12 13 13 11 12 14 14 13 15 14 11 11 12 10 9 9 7 2 0 10 7 2 0 2 3 3 3 1 1 1 2 2 4 2 2 3 2 3 4 2 3 7 9 12 11 8 13 15 18 20 20 16 15 15
12 14 12 12 12 14 14 14 15 13 14 16 13 8 2 1 1 2 0 9 5 1 1 1 2 1 3 0 2 1 1 2 1 2 3 2 3 5 5 1 7 11 9 15 16 15 15 16 19 19 18 16 16 15
11 12 12 13 13 14 14 15 15 13 15 6 3 2 2 1 5 4 1 2 2 1 1 2 2 3 2 1 1 2 1 1 2 2 2 3 5 6 4 3 7 12 14 13 15 14 14 16 17 19 20 17 16 16
11 11 12 14 14 13 14 14 11 13 3 2 1 1 2 5 1 2 1 1 2 2 3 3 5 3 2 2 2 1 1 1 2 1 2 2 2 3 4 8 13 14 13 14 16 16 15 14 15 18 19 20 17 19
11 12 14 15 15 15 13 11 9 6 2 4 3 2 1 0 1 2 2 3 4 3 3 3 2 4 2 2 2 1 2 1 4 2 3 3 4 14 11 14 16 15 14 15 17 14 13 14 19 16 18 17 21 24
12 12 12 15 15 14 11 10 9 5 4 1 0 1 2 2 1 4 5 3 3 3 4 4 2 1 1 2 2 2 3 4 2 2 3 4 6 7 9 12 15 15 15 15 17 19 18 22 25 23 16 22 25 22
12 14 16 13 7 9 12 5 8 5 2 1 2 2 4 4 4 5 4 2 2 3 4 3 2 2 1 3 1 3 2 2 2 2 4 3 5 7 8 10 12 13 13 18 17 17 16 17 17 24 19 19 16 13
12 15 14 2 1 9 9 5 4 4 1 2 3 4 6 5 3 3 3 3 3 1 3 2 2 3 2 2 2 2 3 3 4 4 2 3 6 7 8 10 12 13 15 15 13 11 14 19 17 15 9 6 10 10
13 12 3 1 5 8 9 1 2 1 1 2 4 4 4 3 5 3 5 7 1 2 2 2 2 2 4 2 4 6 2 6 3 3 3 5 8 7 8 9 9 12 16 15 15 16 16 17 17 12 9 10 9 6
9 2 4 7 9 10 5 2 2 3 3 3 4 5 6 5 6 5 3 3 5 4 3 2 4 5 3 3 3 4 4 3 2 3 3 5 7 8 8 9 11 12 13 18 16 16 18 24 26 20 12 13 13 14
4 6 9 11 10 7 1 4 3 3 5 6 4 3 4 5 6 6 3 3 4 3 2 3 1 4 3 3 3 3 4 3 3 4 4 5 5 6 7 8 12 12 11 14 17 16 17 18 15 11 17 15 12 14
13 14 12 8 4 3 2 3 4 3 6 4 5 5 4 5 5 7 2 4 5 1 2 2 4 4 4 3 3 2 2 2 3 3 4 7 7 6 8 9 10 10 10 10 12 13 14 16 14 15 14 15 11 14
13 11 7 9 7 2 2 3 4 4 4 2 3 3 3 3 1 1 2 4 4 3 3 3 3 1 1 1 2 2 3 2 3 4 4 3 5 5 6 7 8 9 7 8 9 13 13 14 18 18 18 14 13 13
8 1 2 12 7 6 3 2 4 3 4 3 2 2 3 1 2 2 2 3 3 3 3 3 2 3 4 2 1 2 3 3 2 3 3 3 6 6 6 7 8 7 6 7 8 10 13 13 13 15 13 15 13 13
3 3 4 7 4 5 3 6 4 4 3 4 3 2 3 2 1 1 3 3 3 2 1 1 1 2 2 1 1 2 1 1 2 3 4 4 3 3 4 6 8 7 7 7 7 6 7 8 10 13 15 15 17 17
5 3 3 6 4 4 4 4 4 3 3 2 2 3 2 2 1 2 2 2 2 1 2 2 4 3 3 3 3 2 1 1 1 2 3 3 5 5 4 4 4 5 5 7 8 9 9 9 8 10 12 13 14 16
4 3 3 3 6 4 2 3 3 3 3 3 2 3 0 0 2 2 2 2 1 2 3 5 6 4 3 2 1 1 1 1 2 3 2 3 3 3 5 5 4 4 4 5 6 7 9 10 10 10 11 13 13 13
1 3 3 5 3 4 4 3 3 3 3 2 2 3 1 1 1 2 2 2 2 4 4 5 4 2 1 1 2 3 4 4 3 3 1 2 4 4 3 4 4 3 3 5 7 7 7 7 9 11 12 12 12 13
4 5 7 3 2 3 3 3 3 2 2 2 4 1 1 1 2 3 2 3 4 5 7 7 6 4 3 5 2 2 3 3 4 4 1 1 3 5 4 4 4 7 5 4 5 7 6 6 6 8 9 10 10 9
3 5 4 2 3 3 4 5 4 4 4 3 2 2 2 2 2 2 2 3 3 7 11 9 9 8 5 2 3 4 6 7 7 5 5 6 6 4 4 2 4 4 4 2 5 6 7 5 3 5 6 7 8 9
5 3 5 2 4 3 4 4 3 3 3 2 2 3 2 2 1 0 2 5 6 8 8 8 8 8 7 6 6 6 5 4 4 4 5 5 3 2 2 3 2 0 2 3 5 6 7 8 4 5 6 7 7 8
4 2 3 5 5 4 5 5 3 2 1 2 2 2 2 2 1 1 3 6 9 9 8 7 6 6 6 6 6 6 5 5 3 4 4 4 3 2 2 3 2 2 3 2 5 7 8 8 7 6 6 6 6 6
4 6 4 3 4 6 4 6 3 1 2 2 1 1 2 2 2 3 5 10 11 9 8 5 5 8 5 4 4 3 4 6 7 6 4 2 3 2 2 4 4 3 2 1 2 2 4 4 3 3 3 4 5 4
2 4 4 4 4 4 6 5 4 3 3 3 3 3 2 2 2 4 7 9 9 8 8 7 6 6 6 8 8 7 6 7 8 8 7 4 3 0 2 6 5 3 1 2 2 3 3 4 4 4 3 3 4 5
5 7 4 4 3 2 3 2 2 2 2 2 2 3 2 2 2 3 8 13 10 9 12 10 9 11 10 10 11 12 14 11 7 6 5 5 4 5 5 5 6 5 4 3 3 3 4 5 4 3 3 3 3 5
4 4 5 5 4 4 3 2 1 2 2 2 2 2 3 2 3 1 5 19 17 18 16 16 16 10 10 11 13 8 4 2 2 3 4 4 4 6 10 8 7 7 6 4 4 4 5 5 4 4 5 6 6 6
Wind_Direction
336 337 340 343 347 349 350 352 353 354 354 356 358 360 7 11 12 22 47 33 34 350 276 223 209 178 146 203 290 19 236 131 343 182 243 175 248 240 273 278 248 225 234 229 223 239 258 27 154 275 342 319 307 313
331 333 336 340 343 344 349 351 354 355 352 348 353 355 358 1 6 11 34 2 347 233 315 248 253 256 241 166 197 161 2 306 8 39 351 290 260 242 279 245 183 240 261 257 228 251 68 10 319 334 323 301 301 308
324 330 333 335 336 341 345 348 350 354 347 341 343 350 350 351 359 4 348 0 8 4 266 293 242 210 228 223 216 266 192 272 132 0 345 317 265 242 256 249 281 216 185 249 286 232 324 314 308 305 313 329 314 300
323 326 331 334 331 333 339 343 343 344 344 338 337 341 333 336 345 345 342 319 22 158 340 115 310 302 280 236 219 221 204 84 32 332 283 263 260 222 261 279 265 270 282 282 278 285 293 294 309 312 306 306 297 299
319 322 327 325 329 330 333 337 339 340 336 331 334 330 327 331 337 334 325 113 98 15 325 312 312 331 324 190 208 214 229 243 259 229 220 240 245 241 241 262 259 256 259 264 276 285 285 289 291 293 295 292 293 295
319 320 321 324 329 329 328 331 333 334 331 326 326 323 325 332 341 7 145 63 196 140 320 320 338 282 321 292 249 234 215 209 224 224 232 237 240 235 258 260 262 274 271 276 280 281 286 285 284 280 276 282 286 288
316 317 325 326 327 327 327 327 327 329 325 319 316 320 321 323 333 287 5 150 163 191 355 306 316 310 313 293 167 151 166 184 220 234 233 256 263 222 255 263 281 291 297 287 278 279 276 274 280 299 298 293 293 289
316 320 316 315 320 323 323 322 322 325 320 314 301 304 306 301 299 291 345 209 161 102 70 329 297 301 359 292 244 3 187 198 203 278 271 244 220 227 256 266 318 311 304 290 282 287 255 286 290 285 287 289 293 287
309 308 313 318 319 320 319 318 324 321 319 314 295 290 317 41 216 332 61 162 151 14 319 262 300 321 350 238 266 189 301 250 114 252 245 248 230 234 248 151 334 317 296 288 292 291 286 283 283 285 284 280 280 285
315 315 314 317 318 316 315 320 325 322 324 346 84 144 120 347 141 107 117 123 191 180 190 249 288 257 273 337 256 279 182 291 284 226 278 240 256 277 227 243 317 312 307 301 295 290 293 294 296 293 289 285 277 274
313 313 310 314 318 314 313 315 321 330 352 2 349 51 96 129 260 240 173 186 148 228 207 229 232 258 177 254 294 251 315 285 277 87 277 250 248 19 327 313 331 327 316 303 298 278 273 275 279 284 284 281 277 270
310 311 317 320 317 314 312 302 304 333 360 331 289 313 66 127 220 251 206 153 210 244 195 213 212 208 238 250 257 189 273 174 255 348 281 290 3 322 321 326 324 323 320 313 303 297 284 283 285 278 276 277 273 269
316 314 313 318 321 323 312 275 259 275 308 49 8 222 183 159 256 212 201 199 227 201 197 190 202 187 148 229 260 266 236 239 293 228 236 232 235 269 318 323 321 314 311 309 303 297 296 293 293 279 271 265 268 263
317 325 328 326 332 352 347 268 217 214 187 212 181 249 222 211 228 215 218 214 203 205 173 189 174 174 140 181 212 242 257 301 282 255 246 271 264 299 312 320 319 321 328 316 305 302 302 309 311 310 284 256 241 249
325 327 324 298 340 7 13 47 161 182 170 238 195 230 229 238 263 258 249 258 224 197 182 174 142 178 170 197 201 266 242 238 227 239 239 256 295 306 316 321 322 325 328 320 315 310 321 328 328 325 315 243 219 240
330 333 101 324 266 326 343 258 198 244 247 231 233 245 230 265 259 234 236 260 224 169 159 228 164 188 212 217 194 219 195 229 245 222 267 285 296 309 319 322 322 325 325 327 337 335 335 335 335 344 30 50 46 15
324 246 339 330 311 323 330 195 200 227 250 234 242 234 256 283 268 262 237 235 157 156 210 188 224 206 124 222 233 197 219 238 276 287 301 291 291 305 312 321 325 328 333 339 337 340 342 348 4 18 29 35 41 37
270 302 306 317 324 333 263 212 242 246 246 238 245 246 212 236 259 262 222 174 170 187 184 216 203 189 225 223 228 223 244 280 268 276 295 301 303 304 315 322 326 329 333 343 358 350 351 355 359 358 8 6 39 33
291 296 298 297 305 319 295 219 216 260 242 247 249 242 248 255 241 258 239 180 192 171 174 194 225 211 224 216 261 295 254 256 304 321 298 299 303 306 316 326 329 344 349 350 354 356 353 353 346 356 10 5 15 18
300 296 270 217 204 229 253 229 223 259 265 273 239 244 239 242 288 222 165 158 172 185 205 217 246 308 268 327 264 296 310 311 292 303 310 341 353 332 325 331 329 330 348 11 11 11 7 17 17 11 15 18 25 18
317 345 222 177 191 220 269 260 252 248 293 269 279 246 261 210 240 213 156 158 185 221 228 210 176 220 212 174 245 294 290 244 293 295 317 314 344 331 327 338 345 351 358 12 19 18 19 18 17 21 24 28 33 42
262 256 194 192 221 202 254 227 253 295 267 270 277 234 270 270 235 171 140 200 234 247 218 122 172 178 155 165 160 220 254 261 280 277 272 274 313 329 340 343 347 349 1 356 4 8 358 7 16 25 31 35 44 49
285 229 233 201 225 217 252 176 243 231 257 264 277 250 219 218 161 149 242 237 268 174 153 154 139 143 124 138 165 156 165 284 341 329 330 308 299 295 308 330 343 353 6 19 7 8 15 22 26 34 33 33 45 49
217 245 227 210 204 258 227 230 220 257 256 251 247 273 245 98 164 220 255 245 177 160 161 159 164 150 163 167 147 168 203 230 327 321 285 287 321 337 319 316 326 333 346 353 10 19 26 28 30 39 43 52 47 47
270 247 160 260 237 251 233 232 224 233 255 236 259 253 203 192 248 242 251 243 187 166 162 172 177 169 148 165 244 252 230 229 271 310 328 257 289 308 359 2 356 344 340 350 24 18 22 24 35 41 45 48 55 58
225 205 185 229 226 226 237 263 236 248 265 257 238 252 178 219 245 249 226 200 185 176 181 191 187 185 222 233 275 311 352 241 223 261 305 228 307 303 341 18 36 46 21 36 36 27 24 18 31 46 49 46 41 44
247 234 211 232 278 285 273 256 251 254 252 237 219 192 211 250 246 239 191 193 187 185 191 190 195 211 237 205 234 275 271 256 241 284 303 302 307 279 241 294 35 32 24 41 23 19 9 1 34 47 47 46 38 24
243 253 212 192 216 227 263 284 260 241 231 190 189 222 243 238 277 155 188 169 169 164 173 190 211 227 246 257 262 269 282 284 289 282 284 283 265 269 253 242 248 115 79 53 38 35 31 43 60 49 47 45 39 31
229 216 205 240 226 235 223 228 250 248 143 177 212 248 259 252 287 209 174 167 167 162 163 179 209 229 246 256 265 263 251 243 253 293 320 350 4 49 193 154 138 137 134 104 42 42 44 44 48 57 62 55 44 45
232 194 219 230 220 224 232 201 239 213 199 216 275 291 255 243 245 227 168 164 171 181 178 186 196 199 215 233 249 254 257 252 243 257 291 323 35 36 140 158 155 152 145 112 59 39 20 25 26 54 57 45 32 19
193 186 220 235 259 248 251 261 258 249 231 225 204 240 263 306 283 216 197 191 183 172 175 197 209 218 225 236 239 253 265 261 264 266 254 241 221 268 160 167 167 160 234 289 304 316 332 345 356 2 3 4 1 353
197 208 210 234 252 267 267 236 250 232 210 219 211 204 221 232 248 192 202 185 185 197 214 220 232 243 246 258 273 271 272 271 263 273 310 246 229 214 199 178 183 199 235 265 282 294 291 303 310 325 316 300 314 330
204 206 216 250 260 254 210 231 241 251 218 239 229 216 223 237 250 192 205 203 204 208 211 219 233 250 279 301 304 294 265 241 233 264 285 242 218 203 198 197 203 216 234 256 283 293 306 291 289 282 294 302 315 319